Location: Sternwarte ZA, Rosenfeld-Brittheim
(48.2889°N, 8.6789°E)
Time: 01:31:02
(UTC+02:00)

ISS - Pass Details

Date: 20 July 2018
Orbit: 402 x 408 km, 51.6° (Epoch: 22 July)

Event Time Altitude Azimuth Distance (km) Brightness Sun altitude
Rises 23:44:19 0° 249° (WSW) 2,317 0.1 -17.1°
Reaches altitude 10° 23:46:24 10° 251° (WSW) 1,460 -0.9 -17.3°
Maximum altitude 23:49:40 82° 339° (NNW) 415 -3.8 -17.5°
Drops below altitude 10° 23:52:58 10° 67° (ENE) 1,469 -1.0 -17.7°
Sets 23:55:04 0° 69° (ENE) 2,332 0.0 -17.9°
